, AK

(GMT )
Deadhorse

Weather History for PASC - October, 2013

Change the Weather History Date:

Friday, October 4, 2013

  Actual Average Record
Temperature  
Mean Temperature 28 °F -  
Max Temperature 30 °F 26 °F 44 °F (1991)
Min Temperature 27 °F 17 °F 3 °F (1992)
Degree Days  
Heating Degree Days 36    
Moisture  
Dew Point 29 °F    
Average Humidity 96    
Maximum Humidity 100    
Minimum Humidity 92    
Precipitation  
Precipitation 0.00 in - - ()
Sea Level Pressure  
Sea Level Pressure 29.92 in    
Wind  
Wind Speed 6 mph (NNE)    
Max Wind Speed 12 mph    
Max Gust Speed -    
Visibility 4 miles    
Events Fog , Snow    
Averages and records for this station are not official NWS values.
T = Trace of Precipitation, MM = Missing Value Source: NWS Daily Summary

Daily Weather History Graph

Daily Weather History Graph

Search for Another Location

Airport or City:

Astronomy

Oct. 04, 2013 Rise Set
Actual Time 8:23 AM AKDT 6:58 PM AKDT
Civil Twilight 7:22 AM AKDT 8:00 PM AKDT
Nautical Twilight 6:09 AM AKDT 9:12 PM AKDT
Astronomical Twilight 4:46 AM AKDT 10:33 PM AKDT
Moon 8:24 AM AKDT (10/4) 6:19 PM AKDT (10/4)
Length of Visible Light 12h 37m
Length of Day
10h 35m
Waning Crescent, 0% of the Moon is Illuminated
Oct 4
Waning Crescent
Oct 4
New
Oct 11
First Quarter
Oct 18
Full
Oct 26
Last Quarter

Hourly Weather History & Observations

Time (AKDT) Temp. Windchill Dew Point Humidity Pressure Visibility Wind Dir Wind Speed Gust Speed Precip Events Conditions
12:49 AM 30.2 °F 21.3 °F 28.4 °F 93% 29.92 in 3.0 mi North 10.4 mph - N/A   Overcast
12:53 AM 30.0 °F 21.1 °F 28.9 °F 96% 29.92 in 3.0 mi North 10.4 mph - N/A   Overcast
1:53 AM 30.0 °F 20.5 °F 28.9 °F 96% 29.92 in 6.0 mi North 11.5 mph - 0.00 in   Overcast
2:17 AM 30.2 °F 20.8 °F 28.4 °F 93% 29.92 in 2.0 mi North 11.5 mph - 0.00 in Snow Light Snow
2:53 AM 30.9 °F 22.2 °F 30.0 °F 96% 29.92 in 0.8 mi NNE 10.4 mph - 0.00 in Snow Light Snow
3:53 AM 30.9 °F 24.3 °F 30.0 °F 96% 29.92 in 0.8 mi NNE 6.9 mph - 0.00 in   Mist
4:53 AM 30.0 °F 25.2 °F 30.0 °F 100% 29.92 in 1.5 mi NNE 4.6 mph - N/A   Overcast
5:01 AM 30.2 °F 25.4 °F 30.2 °F 100% 29.92 in 2.0 mi NNE 4.6 mph - N/A   Overcast
5:42 AM 30.2 °F 25.4 °F 30.2 °F 100% 29.92 in 3.0 mi North 4.6 mph - 0.00 in Snow Light Snow
5:51 AM 30.2 °F 25.4 °F 30.2 °F 100% 29.92 in 5.0 mi North 4.6 mph - 0.00 in Snow Light Snow
5:53 AM 30.0 °F 25.2 °F 30.0 °F 100% 29.92 in 5.0 mi North 4.6 mph - 0.00 in Snow Light Snow
6:20 AM 30.2 °F 24.3 °F 28.4 °F 93% 29.92 in 2.5 mi North 5.8 mph - 0.00 in Snow Light Snow
6:49 AM 30.2 °F 25.4 °F 30.2 °F 100% 29.92 in 1.8 mi North 4.6 mph - 0.00 in Snow Light Snow
6:53 AM 30.9 °F 25.2 °F 30.0 °F 96% 29.92 in 1.5 mi North 5.8 mph - 0.00 in Snow Light Snow
7:34 AM 30.2 °F 21.9 °F 28.4 °F 93% 29.92 in 1.5 mi North 9.2 mph - 0.00 in Snow Light Snow
7:53 AM 30.0 °F 23.2 °F 28.9 °F 96% 29.93 in 1.2 mi North 6.9 mph - 0.00 in Snow Light Snow
8:07 AM 30.2 °F 23.4 °F 28.4 °F 93% 29.92 in 0.5 mi North 6.9 mph - 0.00 in Fog Light Freezing Fog
8:37 AM 30.2 °F 23.4 °F 28.4 °F 93% 29.92 in 0.5 mi North 6.9 mph - 0.00 in Fog Light Freezing Fog
8:53 AM 30.0 °F 23.2 °F 28.9 °F 96% 29.93 in 0.5 mi North 6.9 mph - 0.00 in Fog Light Freezing Fog
9:04 AM 30.2 °F 23.4 °F 28.4 °F 93% 29.92 in 0.5 mi North 6.9 mph - N/A Fog Light Freezing Fog
9:53 AM 30.0 °F 22.4 °F 28.9 °F 96% 29.93 in 0.5 mi NNW 8.1 mph - N/A Fog Light Freezing Fog
10:53 AM 30.9 °F 24.3 °F 30.0 °F 96% 29.92 in 0.5 mi North 6.9 mph - N/A Fog Light Freezing Fog
11:53 AM 30.9 °F 25.2 °F 30.0 °F 96% 29.92 in 0.8 mi NNE 5.8 mph - N/A   Mist
12:04 PM 30.2 °F 25.4 °F 30.2 °F 100% 29.92 in 0.8 mi NNE 4.6 mph - N/A   Mist
12:20 PM 30.2 °F - 30.2 °F 100% 29.92 in 0.5 mi Calm Calm - N/A Fog Light Freezing Fog
12:23 PM 30.2 °F - 30.2 °F 100% 29.92 in 0.2 mi Calm Calm - N/A Fog Light Freezing Fog
12:32 PM 30.2 °F - 30.2 °F 100% 29.93 in 0.2 mi Calm Calm - N/A Fog Light Freezing Fog
12:50 PM 30.2 °F - 30.2 °F 100% 29.93 in 1.0 mi Calm Calm - N/A   Mist
12:53 PM 30.9 °F - 30.0 °F 96% 29.93 in 1.0 mi Calm Calm - N/A   Mist
12:59 PM 30.2 °F - 30.2 °F 100% 29.93 in 3.0 mi Calm Calm - N/A   Overcast
1:53 PM 30.0 °F 26.5 °F 28.9 °F 96% 29.94 in 2.0 mi SE 3.5 mph - N/A   Overcast
2:28 PM 30.2 °F 26.7 °F 30.2 °F 100% 29.93 in 2.0 mi SE 3.5 mph - N/A   Overcast
2:46 PM 30.2 °F 26.7 °F 28.4 °F 93% 29.93 in 2.0 mi SSE 3.5 mph - N/A   Overcast
2:53 PM 30.0 °F 26.5 °F 28.9 °F 96% 29.93 in 2.0 mi SSE 3.5 mph - N/A   Overcast
3:00 PM 30.2 °F 26.7 °F 30.2 °F 100% 29.93 in 4.0 mi SSE 3.5 mph - N/A   Overcast
3:53 PM 28.9 °F - 28.0 °F 96% 29.93 in 4.0 mi Calm Calm - N/A   Overcast
4:53 PM 28.9 °F - 28.0 °F 96% 29.93 in 10.0 mi Calm Calm - N/A   Overcast
5:20 PM 28.4 °F - 28.4 °F 100% 29.92 in 10.0 mi Calm Calm - N/A   Overcast
5:53 PM 28.9 °F - 28.0 °F 96% 29.93 in 10.0 mi Calm Calm - N/A   Overcast
5:59 PM 28.4 °F - 26.6 °F 93% 29.92 in 10.0 mi Calm Calm - N/A   Overcast
6:53 PM 28.9 °F - 27.0 °F 92% 29.93 in 10.0 mi Calm Calm - N/A   Overcast
7:53 PM 28.0 °F 24.2 °F 26.1 °F 92% 29.92 in 10.0 mi East 3.5 mph - N/A   Overcast
8:53 PM 27.0 °F 23.0 °F 26.1 °F 96% 29.92 in 10.0 mi ENE 3.5 mph - N/A   Overcast
9:53 PM 27.0 °F 23.0 °F 25.0 °F 92% 29.91 in 10.0 mi East 3.5 mph - N/A   Overcast
10:53 PM 27.0 °F 21.6 °F 26.1 °F 96% 29.91 in 10.0 mi East 4.6 mph - N/A   Overcast
11:15 PM 28.4 °F 22.2 °F 26.6 °F 93% 29.90 in 10.0 mi East 5.8 mph - N/A   Overcast
11:53 PM 28.0 °F 24.2 °F 26.1 °F 92% 29.91 in 10.0 mi ESE 3.5 mph - N/A   Overcast